Theta_e
308 307 307 307 307 305 301 290 287 300 298 287 283 279 287 293 291 294 292 290 287 285 286 284 284 285 289 294 292 286 288 283 280 283 289 291 290 285 285 278 278 281 281 283
307 308 307 307 306 305 300 291 289 299 297 279 278 285 289 292 291 291 291 289 290 288 285 282 286 288 293 293 290 286 287 281 277 278 284 289 286 288 287 287 284 280 279 283
307 307 307 307 306 306 300 293 285 288 289 288 283 284 286 287 294 292 293 290 290 288 286 287 284 286 291 293 292 297 292 282 280 275 280 285 283 288 289 286 280 283 284 286
307 307 307 307 306 306 297 290 285 288 282 285 287 286 287 287 287 293 292 289 289 288 285 285 284 286 289 292 295 292 288 280 285 284 286 286 286 286 287 286 287 283 286 287
308 307 308 308 306 304 294 287 286 293 287 288 286 286 288 288 289 289 288 288 290 289 286 286 285 288 288 287 288 290 290 281 285 283 287 287 285 287 287 288 289 288 288 288
307 308 308 308 307 301 289 290 291 291 288 287 288 287 288 289 291 291 293 292 289 287 289 293 292 293 292 292 288 288 287 285 283 278 285 285 283 287 287 289 290 289 286 293
306 307 308 308 308 303 298 293 292 288 281 285 286 289 290 290 290 289 292 293 291 293 297 294 294 292 291 291 291 292 286 284 284 280 283 275 286 296 294 290 291 292 294 295
306 306 307 308 308 307 299 298 294 289 282 287 287 289 289 291 291 289 292 293 295 295 290 286 285 287 289 289 292 291 290 287 282 279 279 285 288 293 292 291 290 293 299 304
305 306 306 307 308 308 300 298 298 293 288 283 291 287 290 288 289 290 292 294 294 290 285 282 280 279 285 284 287 292 293 289 284 283 278 277 287 292 296 297 287 305 304 303
304 305 306 307 307 308 304 298 297 295 288 288 288 286 287 291 292 289 289 291 289 288 282 277 281 281 289 282 283 285 285 285 281 281 280 285 291 293 296 287 291 302 304 303
304 305 305 306 307 307 305 298 299 295 289 291 291 292 289 291 292 288 293 288 289 285 282 282 283 282 287 286 287 285 284 282 284 284 282 280 294 291 292 298 303 304 303 303
304 304 305 306 306 307 307 298 300 300 294 291 294 295 298 298 297 294 295 292 289 290 285 285 287 285 287 286 282 289 283 286 284 285 285 290 292 292 300 304 302 303 304 306
303 304 305 306 306 306 306 301 301 297 292 290 290 291 296 299 299 302 291 290 293 293 295 290 289 284 289 284 285 286 289 293 288 289 288 289 296 302 305 304 304 306 307 307
302 303 303 305 305 305 306 301 300 297 294 287 288 298 296 302 301 300 301 294 296 294 295 291 289 286 293 289 290 289 292 293 291 288 292 295 299 301 303 304 306 306 306 306
302 302 303 304 304 304 303 302 302 300 293 289 289 295 298 300 300 299 300 297 296 293 290 290 288 291 294 292 291 288 295 293 290 287 296 296 298 302 305 302 302 304 304 303
302 302 302 303 303 304 300 294 300 301 298 292 287 292 295 298 300 299 298 298 297 295 293 291 290 294 294 285 285 293 296 298 297 295 300 301 302 303 305 303 302 303 303 303
301 301 302 303 304 302 296 292 301 302 300 293 289 285 294 298 299 298 296 297 298 297 296 293 289 291 293 286 284 294 296 297 298 300 300 298 300 298 303 303 303 303 303 303
302 303 304 305 305 303 298 300 303 304 299 299 288 286 288 299 295 293 296 296 298 298 297 291 290 291 289 284 291 295 297 297 297 298 299 298 299 300 300 302 301 300 299 301
303 304 306 301 298 296 302 310 307 305 301 292 291 284 280 296 296 296 294 296 292 293 293 290 289 286 283 289 292 293 294 293 294 296 297 297 297 297 298 298 299 298 298 299
303 300 300 298 298 305 308 302 298 297 298 297 291 289 285 292 291 292 291 292 290 288 288 292 283 284 292 294 296 295 297 297 295 294 294 295 295 296 296 297 299 299 298 298
290 287 291 296 302 301 299 294 292 292 290 291 292 289 286 293 288 288 291 283 285 280 287 287 284 282 291 296 297 297 298 297 297 298 298 297 296 296 297 298 298 298 297 296
290 290 295 296 292 292 291 289 293 291 287 290 289 291 291 291 294 288 287 283 284 283 289 287 280 288 294 296 297 296 296 297 298 298 298 298 298 298 297 297 297 297 297 297
294 294 291 292 291 285 286 281 285 289 295 298 297 295 295 293 293 287 284 282 281 288 279 283 285 292 295 296 297 296 295 298 299 299 299 299 299 299 297 296 297 297 297 297
290 290 285 286 283 284 286 287 290 297 298 297 298 293 295 293 289 288 284 286 284 277 278 279 288 292 295 297 298 296 295 296 298 298 298 298 298 297 297 296 297 297 296 295
286 289 283 285 288 288 290 295 295 297 297 295 294 294 295 290 290 289 285 283 278 280 279 281 291 296 300 300 301 298 297 296 295 297 296 298 298 297 296 296 296 297 296 295
287 286 286 288 286 286 287 288 288 292 291 292 295 292 290 288 288 285 284 279 277 281 284 289 294 296 297 300 301 301 300 297 296 297 297 298 298 296 296 297 296 296 295 294
286 284 290 289 287 287 288 288 288 289 288 287 290 288 288 292 286 283 285 281 285 287 290 293 295 296 296 299 300 302 301 297 296 296 297 297 298 297 296 295 295 294 294 293
Wind_Speed
20 20 22 23 23 25 7 4 3 3 3 5 1 0 3 8 7 11 8 4 5 5 3 5 4 4 4 4 3 2 2 2 3 10 5 3 0 4 4 4 6 5 3 10
21 21 21 23 22 18 5 4 4 4 4 3 4 6 6 4 8 13 5 5 2 2 4 4 5 5 4 4 4 2 1 1 3 9 3 2 3 3 4 1 2 7 5 10
21 20 20 22 23 21 1 3 5 5 5 0 2 4 4 5 9 12 10 7 3 2 5 7 7 7 5 0 5 5 4 3 6 5 5 4 5 5 2 2 3 6 17 16
20 20 19 18 22 23 2 3 2 2 5 4 9 3 5 8 10 3 6 5 4 13 6 10 7 5 4 4 8 3 5 6 6 9 14 14 14 16 13 11 9 7 5 22
18 19 16 15 17 19 4 2 4 4 7 7 4 4 3 9 11 6 6 7 18 13 12 14 20 17 6 8 3 6 6 4 4 12 12 17 19 20 17 16 16 10 14 28
18 17 16 16 13 8 3 3 3 2 5 3 4 3 7 14 12 8 10 15 17 15 16 12 17 16 19 12 6 8 7 4 5 7 9 11 11 19 20 14 7 11 15 11
18 17 17 15 11 4 1 2 1 3 5 3 5 11 17 12 14 12 16 13 15 8 21 20 14 14 16 15 18 15 8 5 3 6 5 7 7 4 14 18 14 17 15 12
17 17 17 15 12 4 2 2 1 2 5 4 14 9 7 13 12 9 14 13 13 11 8 6 7 3 2 3 2 14 16 10 3 3 4 11 14 6 7 2 8 12 6 15
17 17 17 15 13 10 2 3 3 2 4 5 5 8 11 8 7 5 9 7 5 5 3 3 4 4 4 3 3 7 6 12 7 3 5 4 2 5 11 8 5 5 4 8
18 18 17 16 14 14 3 3 5 2 4 6 3 5 4 4 5 5 7 7 7 4 5 3 2 4 4 4 6 4 3 6 12 9 6 6 3 8 11 7 2 11 6 6
17 17 17 17 15 15 6 3 6 3 4 10 9 7 5 4 3 3 7 7 4 4 6 3 3 3 4 4 3 4 2 2 3 4 5 7 4 15 6 5 7 7 9 4
17 18 16 16 16 15 12 3 2 4 4 9 8 16 18 17 20 6 3 3 2 2 3 3 4 3 4 6 4 1 1 2 2 2 2 6 16 15 13 5 7 9 9 6
19 19 18 17 15 16 11 3 3 1 4 7 3 7 7 8 15 13 4 2 4 1 1 2 3 4 2 4 3 5 2 5 2 3 3 9 14 10 10 13 16 12 10 8
20 19 18 19 18 15 14 4 3 2 3 5 8 3 8 6 7 13 15 3 4 4 1 2 3 3 3 2 4 3 2 7 6 3 5 11 12 13 17 16 14 16 15 5
20 20 19 18 17 17 10 8 7 8 4 4 7 10 5 5 7 8 7 5 4 2 1 3 4 4 2 1 3 3 3 3 4 3 9 6 7 13 14 14 10 8 10 13
22 22 22 21 17 13 4 4 2 5 6 3 5 5 5 4 4 7 8 4 2 1 2 3 4 5 1 2 3 6 5 5 2 3 6 5 7 10 8 10 12 13 12 13
25 24 23 21 16 4 4 3 2 8 5 4 4 6 5 1 4 2 2 2 2 2 3 3 3 3 2 1 1 5 8 7 8 9 5 7 10 3 3 9 11 14 13 16
26 26 24 22 12 6 5 7 17 8 4 3 2 6 6 4 3 3 3 3 2 3 3 3 3 3 1 1 5 5 6 9 6 6 6 3 4 7 10 11 13 17 14 13
27 27 14 3 3 3 2 4 7 6 3 2 2 2 5 3 1 2 1 3 2 0 3 4 2 1 2 5 3 4 4 2 5 4 7 8 9 10 8 9 13 14 15 13
21 5 2 1 2 14 2 1 1 3 2 3 4 2 4 1 2 2 2 1 2 2 5 2 2 4 4 5 6 4 6 4 2 6 7 6 7 7 8 10 9 13 14 12
5 5 3 4 12 1 2 2 3 2 3 4 4 7 4 3 3 4 2 2 1 1 4 1 3 4 4 3 5 3 6 2 6 5 3 4 5 5 7 10 11 14 13 12
5 6 6 3 3 2 3 4 4 5 5 3 3 4 5 4 3 3 2 2 2 4 2 1 3 5 4 4 3 2 2 7 6 3 3 4 5 5 6 7 10 10 10 10
2 3 4 2 2 2 5 4 4 3 1 0 3 3 3 1 1 2 3 2 5 1 3 3 5 3 3 5 4 4 3 7 6 4 4 6 7 8 8 8 6 8 11 9
3 3 4 5 4 6 5 3 1 2 5 6 6 4 4 2 2 3 3 3 3 2 1 5 3 4 4 3 0 5 5 6 8 7 7 7 7 6 6 7 6 8 9 8
3 3 6 7 6 3 4 2 2 3 6 4 4 1 3 3 2 3 2 1 3 5 6 5 4 6 6 5 2 3 6 6 6 7 7 7 7 7 5 6 7 7 7 8
3 6 5 4 2 3 2 2 3 3 3 4 2 1 1 5 2 3 6 6 6 6 5 4 4 6 6 8 6 2 1 5 6 6 7 7 7 8 6 6 7 6 7 9
5 5 4 6 4 6 3 2 4 1 3 3 2 1 4 2 3 3 5 7 5 5 4 3 6 8 8 6 6 4 5 5 7 6 6 6 6 7 6 8 5 6 6 7
Wind_Direction
345 346 344 345 348 347 19 353 51 303 55 39 97 328 266 284 298 326 296 236 250 252 304 274 270 275 234 146 165 200 215 131 261 240 244 273 63 211 165 176 238 248 245 259
348 347 347 345 348 357 325 349 283 310 84 70 312 299 290 263 325 312 310 284 287 178 263 303 263 269 291 241 183 184 144 99 335 322 31 131 207 199 210 203 300 238 226 271
346 348 348 346 344 350 55 7 354 325 42 79 136 309 279 300 321 306 339 274 271 297 261 228 266 259 288 6 226 167 119 196 178 205 259 359 299 270 217 214 232 240 240 304
342 346 348 347 344 347 72 27 310 215 307 331 311 265 270 320 340 294 299 278 325 315 278 293 242 238 274 272 259 120 138 226 211 238 255 268 265 264 258 230 246 243 314 253
337 340 341 347 350 346 67 41 14 338 294 274 281 284 263 313 323 310 285 279 312 302 274 251 277 273 232 261 283 155 175 262 278 276 258 254 265 250 243 241 238 253 267 274
334 333 334 342 355 26 40 319 310 241 271 281 285 257 314 310 319 289 262 295 305 296 288 294 283 270 268 235 218 196 188 216 264 267 309 329 258 229 223 220 206 198 239 276
332 331 331 333 341 73 166 250 258 293 273 272 277 291 295 304 305 290 288 298 291 287 310 299 266 252 252 240 234 221 201 190 214 286 314 249 254 16 214 211 211 214 243 273
326 327 326 324 328 312 169 189 223 267 283 262 294 277 319 299 308 274 290 293 286 310 306 323 329 328 181 254 349 215 221 215 225 239 243 304 290 38 17 321 262 219 244 269
324 322 323 323 321 315 170 203 169 252 290 257 288 314 294 293 306 295 269 288 313 14 10 348 322 303 294 315 270 204 259 192 190 200 262 278 16 332 352 315 271 85 299 284
323 320 318 318 317 312 283 217 172 209 258 263 221 231 282 286 273 280 293 333 334 46 0 3 321 292 310 315 323 345 77 133 205 213 238 270 265 294 313 188 222 318 299 282
322 318 316 315 311 308 305 216 183 186 241 275 236 247 220 257 250 271 314 343 346 355 5 354 328 294 317 302 271 321 333 250 186 204 236 243 15 306 211 332 305 281 354 346
321 315 313 309 309 308 308 223 198 178 233 263 283 264 247 234 252 258 254 272 281 284 342 351 298 289 295 300 315 316 1 311 294 298 289 309 283 264 279 275 229 9 348 8
318 321 320 314 303 299 295 255 190 188 270 276 280 245 246 217 228 203 218 257 228 225 130 293 292 284 304 316 328 302 295 303 14 253 318 300 315 7 49 37 21 354 356 25
315 311 312 311 314 312 306 262 165 176 272 276 278 295 270 221 201 187 208 166 73 103 113 261 271 272 213 286 289 285 275 309 326 300 303 330 339 1 21 44 29 18 31 351
314 314 309 307 306 304 299 264 233 199 191 292 294 303 268 276 172 173 173 153 129 156 189 222 244 267 278 320 278 311 343 318 352 300 282 269 345 17 31 46 54 34 26 30
313 310 307 304 303 300 294 299 139 184 178 266 293 282 295 351 119 142 156 156 128 190 242 235 263 257 188 57 301 279 300 316 280 282 333 25 64 50 30 28 53 45 34 37
312 305 300 297 291 253 223 210 37 145 166 245 288 306 277 159 113 132 131 189 224 216 256 249 250 292 109 128 262 286 318 325 349 2 15 17 25 40 64 62 54 67 45 36
308 304 301 294 262 233 252 243 236 213 230 247 278 275 325 189 162 214 161 187 202 208 264 296 241 317 73 290 268 301 309 327 6 30 46 51 347 22 26 36 45 59 52 43
311 310 311 92 92 179 245 29 145 158 248 261 215 216 263 334 256 158 227 167 203 257 244 246 115 310 244 226 228 289 303 354 325 56 35 26 40 26 17 43 50 56 46 40
323 354 333 84 39 326 279 268 163 197 220 232 246 175 263 45 354 299 104 229 220 213 251 323 91 251 255 240 216 249 301 2 334 28 25 24 29 19 10 28 44 61 56 40
9 7 343 313 305 285 233 226 193 190 238 225 238 194 214 264 186 226 175 198 194 54 266 149 308 290 240 250 223 250 275 278 76 100 77 54 75 59 35 56 57 56 49 40
258 281 294 268 311 267 244 227 169 203 232 220 202 215 202 261 152 109 296 164 42 238 311 86 274 260 222 186 234 41 111 139 122 125 102 23 10 59 74 67 62 61 53 33
289 204 230 221 244 245 218 222 264 260 222 148 272 258 231 287 96 82 82 109 230 14 49 232 232 264 195 194 163 146 187 143 141 127 88 71 58 47 48 50 44 77 68 52
279 260 249 196 202 241 207 203 200 326 261 291 262 239 163 237 141 149 153 230 81 28 341 238 244 227 195 125 263 147 115 122 158 135 123 113 96 77 56 63 57 72 67 53
257 258 244 230 227 255 250 267 299 266 274 330 320 25 78 273 170 204 115 112 266 204 228 228 221 187 162 128 168 191 152 137 136 140 141 138 121 102 74 69 63 64 70 57
231 235 262 260 302 283 346 307 262 259 314 299 93 61 181 243 189 154 205 141 225 243 217 223 175 184 211 173 145 210 205 156 132 146 152 138 130 126 121 96 84 81 78 69
238 250 229 253 269 258 242 206 259 272 358 280 112 173 212 272 253 243 183 197 217 222 222 214 187 189 198 193 142 193 202 194 140 150 162 137 127 124 112 104 91 95 94 89